CZ-4C DEB (44211 NORAD) Tracking and Keplerian Element Data

This shows tracking and keplerian element data for the satellite.

Feedback or suggestion? Click here.




ElementValue
Catalog44211
NameCZ-4C DEB
Epoch Orbit431
Epoch Day148.97573449
Epoch Year2019
RAAN156.1998
Inclination97.4622
Eccentricity0.0020583
Argument of Perigee172.8953
Mean Anonmoly187.2569
Mean Motion15.19360137
Decay Rate1.074E-05
L11 44211U 19024E 19148.97573449 .00001074 00000-0 53832-4 0 9996
L22 44211 97.4622 156.1998 0020583 172.8953 187.2569 15.19360137 4318

Live tracking and technical data element details for CZ-4C DEB (NORAD 44211). CZ-4C DEB can be tracked NOW for your location showing map with azimuth and elevation plus other details from your city location.

Track the satellite on the map from your city or location and see movement details for azimuth, elevation, latitude, longitude, range, height, and movement on the map or in text.







IsCatalogInMostPopularTable: catalog: 44211, numindb: 17
Update: records affected: 1



GetName: 44211 CZ-4C DEB

Hit Count: updated at: Mon, 22 Jul 2019 03:27:56 GMT